Time,TemperatureF,DewpointF,PressureIn,WindDirection,WindDirectionDegrees,WindSpeedMPH,WindSpeedGustMPH,Humidity,HourlyPrecipIn,Conditions,Clouds,dailyrainin,SoftwareType,DateUTC
2013-02-05 00:03:00,15.0,9.0,29.98,SSW,207,1.0,-999.0,76,-99.99,,,-99.99,,2013-02-05 05:03:00,
2013-02-05 00:12:00,15.0,9.0,29.98,SSW,207,1.0,-999.0,76,-99.99,,,-99.99,,2013-02-05 05:12:00,
2013-02-05 00:22:00,15.0,9.0,29.99,SSW,203,1.0,-999.0,77,-99.99,,,-99.99,,2013-02-05 05:22:00,
2013-02-05 00:32:00,14.0,8.0,29.98,SSW,204,2.0,-999.0,78,-99.99,,,-99.99,,2013-02-05 05:32:00,
2013-02-05 00:42:00,14.0,8.0,29.98,SSW,204,2.0,-999.0,78,-99.99,,,-99.99,,2013-02-05 05:42:00,
2013-02-05 00:52:00,14.0,8.0,29.98,SSW,204,2.0,-999.0,78,-99.99,,,-99.99,,2013-02-05 05:52:00,
2013-02-05 01:02:00,14.0,9.0,29.98,South,182,1.0,-999.0,80,-99.99,,,-99.99,,2013-02-05 06:02:00,
2013-02-05 01:11:00,14.0,9.0,29.98,South,182,1.0,-999.0,80,-99.99,,,-99.99,,2013-02-05 06:11:00,
2013-02-05 01:22:00,14.0,9.0,29.98,SSW,192,1.0,-999.0,81,-99.99,,,-99.99,,2013-02-05 06:22:00,
2013-02-05 01:32:00,14.0,10.0,29.98,SSW,192,1.0,-999.0,82,-99.99,,,-99.99,,2013-02-05 06:32:00,
2013-02-05 01:42:00,14.0,10.0,29.98,SSW,192,1.0,-999.0,82,-99.99,,,-99.99,,2013-02-05 06:42:00,
2013-02-05 01:52:00,14.0,10.0,29.98,SSW,192,1.0,-999.0,82,-99.99,,,-99.99,,2013-02-05 06:52:00,
2013-02-05 02:01:00,14.0,10.0,29.98,SSW,192,1.0,-999.0,83,-99.99,,,-99.99,,2013-02-05 07:01:00,
2013-02-05 02:11:00,14.0,10.0,29.98,SSW,192,1.0,-999.0,83,-99.99,,,-99.99,,2013-02-05 07:11:00,
2013-02-05 02:22:00,14.0,10.0,29.99,SSW,192,1.0,-999.0,83,-99.99,,,-99.99,,2013-02-05 07:22:00,
2013-02-05 02:32:00,14.0,10.0,29.99,South,188,1.0,-999.0,84,-99.99,,,-99.99,,2013-02-05 07:32:00,
2013-02-05 02:42:00,14.0,10.0,29.99,South,188,1.0,-999.0,84,-99.99,,,-99.99,,2013-02-05 07:42:00,
2013-02-05 02:52:00,14.0,10.0,29.98,South,188,1.0,-999.0,84,-99.99,,,-99.99,,2013-02-05 07:52:00,
2013-02-05 03:01:00,14.0,10.0,29.98,South,188,1.0,-999.0,84,-99.99,,,-99.99,,2013-02-05 08:01:00,
2013-02-05 03:11:00,14.0,10.0,29.98,South,188,1.0,-999.0,84,-99.99,,,-99.99,,2013-02-05 08:11:00,
2013-02-05 03:21:00,14.0,10.0,29.97,South,188,0.0,-999.0,84,-99.99,,,-99.99,,2013-02-05 08:21:00,
2013-02-05 03:32:00,14.0,10.0,29.97,South,188,0.0,-999.0,84,-99.99,,,-99.99,,2013-02-05 08:32:00,
2013-02-05 03:42:00,14.0,10.0,29.97,South,188,0.0,-999.0,84,-99.99,,,-99.99,,2013-02-05 08:42:00,
2013-02-05 03:52:00,14.0,10.0,29.97,South,188,0.0,-999.0,84,-99.99,,,-99.99,,2013-02-05 08:52:00,
2013-02-05 04:02:00,14.0,10.0,29.97,South,188,0.0,-999.0,84,-99.99,,,-99.99,,2013-02-05 09:02:00,
2013-02-05 04:11:00,14.0,10.0,29.97,South,188,0.0,-999.0,85,-99.99,,,-99.99,,2013-02-05 09:11:00,
2013-02-05 04:22:00,14.0,10.0,29.97,South,188,0.0,-999.0,85,-99.99,,,-99.99,,2013-02-05 09:22:00,
2013-02-05 04:32:00,14.0,10.0,29.98,South,188,0.0,-999.0,85,-99.99,,,-99.99,,2013-02-05 09:32:00,
2013-02-05 04:42:00,14.0,10.0,29.98,South,188,0.0,-999.0,85,-99.99,,,-99.99,,2013-02-05 09:42:00,
2013-02-05 04:51:00,14.0,10.0,29.98,South,188,0.0,-999.0,85,-99.99,,,-99.99,,2013-02-05 09:51:00,
2013-02-05 05:02:00,14.0,10.0,29.97,South,188,0.0,-999.0,85,-99.99,,,-99.99,,2013-02-05 10:02:00,
2013-02-05 05:11:00,14.0,10.0,29.97,South,188,0.0,-999.0,85,-99.99,,,-99.99,,2013-02-05 10:11:00,
2013-02-05 05:21:00,14.0,10.0,29.97,South,188,0.0,-999.0,85,-99.99,,,-99.99,,2013-02-05 10:21:00,
2013-02-05 05:32:00,14.0,10.0,29.98,South,188,0.0,-999.0,84,-99.99,,,-99.99,,2013-02-05 10:32:00,
2013-02-05 05:42:00,14.0,10.0,29.98,South,188,0.0,-999.0,84,-99.99,,,-99.99,,2013-02-05 10:42:00,
2013-02-05 05:52:00,14.0,10.0,29.98,South,188,0.0,-999.0,84,-99.99,,,-99.99,,2013-02-05 10:52:00,
2013-02-05 06:01:00,14.0,10.0,29.98,South,188,0.0,-999.0,84,-99.99,,,-99.99,,2013-02-05 11:01:00,
2013-02-05 06:11:00,14.0,10.0,29.98,South,188,0.0,-999.0,84,-99.99,,,-99.99,,2013-02-05 11:11:00,
2013-02-05 06:22:00,14.0,10.0,29.98,South,188,0.0,-999.0,84,-99.99,,,-99.99,,2013-02-05 11:22:00,
2013-02-05 06:32:00,14.0,10.0,29.99,South,188,0.0,-999.0,84,-99.99,,,-99.99,,2013-02-05 11:32:00,
2013-02-05 06:42:00,14.0,10.0,29.99,South,188,0.0,-999.0,84,-99.99,,,-99.99,,2013-02-05 11:42:00,
2013-02-05 06:52:00,14.0,10.0,30.00,South,188,0.0,-999.0,84,-99.99,,,-99.99,,2013-02-05 11:52:00,
2013-02-05 07:02:00,14.0,10.0,30.00,South,188,0.0,-999.0,85,-99.99,,,-99.99,,2013-02-05 12:02:00,
2013-02-05 07:12:00,14.0,10.0,30.00,South,188,0.0,-999.0,85,-99.99,,,-99.99,,2013-02-05 12:12:00,
2013-02-05 07:22:00,14.0,10.0,30.01,South,188,0.0,-999.0,85,-99.99,,,-99.99,,2013-02-05 12:22:00,
2013-02-05 07:32:00,14.0,10.0,30.01,South,188,0.0,-999.0,85,-99.99,,,-99.99,,2013-02-05 12:32:00,
2013-02-05 07:42:00,14.0,10.0,30.01,South,188,0.0,-999.0,85,-99.99,,,-99.99,,2013-02-05 12:42:00,
2013-02-05 07:52:00,14.0,10.0,30.01,South,188,0.0,-999.0,85,-99.99,,,-99.99,,2013-02-05 12:52:00,
2013-02-05 08:02:00,14.0,10.0,30.02,South,188,0.0,-999.0,85,-99.99,,,-99.99,,2013-02-05 13:02:00,
2013-02-05 08:12:00,14.0,10.0,30.02,South,188,0.0,-999.0,85,-99.99,,,-99.99,,2013-02-05 13:12:00,
2013-02-05 08:22:00,14.0,10.0,30.03,South,188,0.0,-999.0,85,-99.99,,,-99.99,,2013-02-05 13:22:00,
2013-02-05 08:32:00,14.0,10.0,30.03,South,188,1.0,-999.0,85,-99.99,,,-99.99,,2013-02-05 13:32:00,
2013-02-05 08:42:00,14.0,10.0,30.03,South,188,1.0,-999.0,85,-99.99,,,-99.99,,2013-02-05 13:42:00,
2013-02-05 08:52:00,15.0,11.0,30.03,East,79,1.0,-999.0,85,-99.99,,,-99.99,,2013-02-05 13:52:00,
2013-02-05 09:01:00,15.0,11.0,30.03,East,80,1.0,-999.0,85,-99.99,,,-99.99,,2013-02-05 14:01:00,
2013-02-05 09:12:00,15.0,11.0,30.03,East,80,1.0,-999.0,85,-99.99,,,-99.99,,2013-02-05 14:12:00,
2013-02-05 09:22:00,15.0,11.0,30.03,East,80,0.0,-999.0,84,-99.99,,,-99.99,,2013-02-05 14:22:00,
2013-02-05 09:32:00,16.0,12.0,30.03,ENE,74,1.0,-999.0,83,-99.99,,,-99.99,,2013-02-05 14:32:00,
2013-02-05 09:42:00,16.0,12.0,30.03,ENE,74,1.0,-999.0,83,-99.99,,,-99.99,,2013-02-05 14:42:00,
2013-02-05 09:52:00,16.0,11.0,30.03,ESE,119,1.0,-999.0,82,-99.99,,,-99.99,,2013-02-05 14:52:00,
2013-02-05 10:02:00,16.0,11.0,30.03,ENE,76,1.0,-999.0,82,-99.99,,,-99.99,,2013-02-05 15:02:00,
2013-02-05 10:11:00,16.0,11.0,30.03,ENE,76,1.0,-999.0,82,-99.99,,,-99.99,,2013-02-05 15:11:00,
2013-02-05 10:22:00,18.0,12.0,30.03,NE,50,1.0,-999.0,78,-99.99,,,-99.99,,2013-02-05 15:22:00,
2013-02-05 10:32:00,20.0,12.0,30.03,NE,51,2.0,-999.0,71,-99.99,,,-99.99,,2013-02-05 15:32:00,
2013-02-05 10:42:00,20.0,12.0,30.03,NE,51,2.0,-999.0,71,-99.99,,,-99.99,,2013-02-05 15:42:00,
2013-02-05 10:52:00,21.0,12.0,30.03,NE,51,1.0,-999.0,69,-99.99,,,-99.99,,2013-02-05 15:52:00,
2013-02-05 11:01:00,22.0,13.0,30.02,NE,51,2.0,-999.0,69,-99.99,,,-99.99,,2013-02-05 16:01:00,
2013-02-05 11:12:00,22.0,13.0,30.02,NE,51,2.0,-999.0,69,-99.99,,,-99.99,,2013-02-05 16:12:00,
2013-02-05 11:22:00,23.0,14.0,30.02,NE,51,1.0,-999.0,68,-99.99,,,-99.99,,2013-02-05 16:22:00,
2013-02-05 11:32:00,23.0,14.0,30.02,NE,51,1.0,-999.0,67,-99.99,,,-99.99,,2013-02-05 16:32:00,
2013-02-05 11:42:00,23.0,14.0,30.02,NE,51,1.0,-999.0,67,-99.99,,,-99.99,,2013-02-05 16:42:00,
2013-02-05 11:52:00,23.0,13.0,30.01,NE,51,2.0,-999.0,66,-99.99,,,-99.99,,2013-02-05 16:52:00,
2013-02-05 12:01:00,23.0,14.0,30.00,NE,51,1.0,-999.0,67,-99.99,,,-99.99,,2013-02-05 17:01:00,
2013-02-05 12:12:00,23.0,14.0,30.00,NE,51,1.0,-999.0,67,-99.99,,,-99.99,,2013-02-05 17:12:00,
2013-02-05 12:22:00,23.0,13.0,29.99,NE,51,1.0,-999.0,65,-99.99,,,-99.99,,2013-02-05 17:22:00,
2013-02-05 12:32:00,23.0,12.0,29.98,NE,51,1.0,-999.0,63,-99.99,,,-99.99,,2013-02-05 17:32:00,
2013-02-05 12:42:00,23.0,12.0,29.98,NE,51,1.0,-999.0,63,-99.99,,,-99.99,,2013-02-05 17:42:00,
2013-02-05 12:52:00,25.0,14.0,29.98,NE,51,1.0,-999.0,62,-99.99,,,-99.99,,2013-02-05 17:52:00,
2013-02-05 13:02:00,26.0,14.0,29.97,West,265,1.0,-999.0,59,-99.99,,,-99.99,,2013-02-05 18:02:00,
2013-02-05 13:11:00,26.0,14.0,29.97,West,265,1.0,-999.0,59,-99.99,,,-99.99,,2013-02-05 18:11:00,
2013-02-05 13:22:00,26.0,14.0,29.96,SSW,192,1.0,-999.0,59,-99.99,,,-99.99,,2013-02-05 18:22:00,
2013-02-05 13:32:00,26.0,12.0,29.97,WNW,285,3.0,-999.0,56,-99.99,,,-99.99,,2013-02-05 18:32:00,
2013-02-05 13:42:00,26.0,12.0,29.97,WNW,285,3.0,-999.0,56,-99.99,,,-99.99,,2013-02-05 18:42:00,
2013-02-05 13:52:00,26.0,13.0,29.96,West,272,1.0,-999.0,57,-99.99,,,-99.99,,2013-02-05 18:52:00,
2013-02-05 14:02:00,27.0,13.0,29.95,SW,226,2.0,-999.0,56,-99.99,,,-99.99,,2013-02-05 19:02:00,
2013-02-05 14:11:00,27.0,13.0,29.95,SW,226,2.0,-999.0,56,-99.99,,,-99.99,,2013-02-05 19:11:00,
2013-02-05 14:22:00,26.0,14.0,29.94,South,175,2.0,-999.0,59,-99.99,,,-99.99,,2013-02-05 19:22:00,
2013-02-05 14:32:00,27.0,14.0,29.94,South,182,3.0,-999.0,58,-99.99,,,-99.99,,2013-02-05 19:32:00,
2013-02-05 14:42:00,27.0,14.0,29.94,South,182,3.0,-999.0,58,-99.99,,,-99.99,,2013-02-05 19:42:00,
2013-02-05 14:52:00,27.0,15.0,29.95,SSW,192,3.0,-999.0,59,-99.99,,,-99.99,,2013-02-05 19:52:00,
2013-02-05 15:02:00,27.0,15.0,29.94,SW,219,2.0,-999.0,59,-99.99,,,-99.99,,2013-02-05 20:02:00,
2013-02-05 15:11:00,27.0,15.0,29.94,SW,219,2.0,-999.0,59,-99.99,,,-99.99,,2013-02-05 20:11:00,
2013-02-05 15:21:00,27.0,15.0,29.94,South,171,2.0,-999.0,59,-99.99,,,-99.99,,2013-02-05 20:21:00,
2013-02-05 15:32:00,27.0,15.0,29.93,South,175,1.0,-999.0,60,-99.99,,,-99.99,,2013-02-05 20:32:00,
2013-02-05 15:42:00,27.0,15.0,29.93,South,175,1.0,-999.0,60,-99.99,,,-99.99,,2013-02-05 20:42:00,
2013-02-05 15:52:00,27.0,15.0,29.94,South,175,3.0,-999.0,60,-99.99,,,-99.99,,2013-02-05 20:52:00,
2013-02-05 16:02:00,26.0,15.0,29.94,South,175,3.0,-999.0,62,-99.99,,,-99.99,,2013-02-05 21:02:00,
2013-02-05 16:11:00,26.0,15.0,29.94,South,175,3.0,-999.0,62,-99.99,,,-99.99,,2013-02-05 21:11:00,
2013-02-05 16:22:00,27.0,16.0,29.93,South,180,1.0,-999.0,63,-99.99,,,-99.99,,2013-02-05 21:22:00,
2013-02-05 16:32:00,27.0,16.0,29.93,South,180,1.0,-999.0,63,-99.99,,,-99.99,,2013-02-05 21:32:00,
2013-02-05 16:42:00,27.0,16.0,29.93,South,180,1.0,-999.0,63,-99.99,,,-99.99,,2013-02-05 21:42:00,
2013-02-05 16:52:00,27.0,16.0,29.93,South,180,1.0,-999.0,63,-99.99,,,-99.99,,2013-02-05 21:52:00,
2013-02-05 17:02:00,26.0,17.0,29.93,South,190,3.0,-999.0,67,-99.99,,,-99.99,,2013-02-05 22:02:00,
2013-02-05 17:11:00,26.0,17.0,29.93,South,190,3.0,-999.0,67,-99.99,,,-99.99,,2013-02-05 22:11:00,
2013-02-05 17:22:00,26.0,17.0,29.92,SSW,192,2.0,-999.0,69,-99.99,,,-99.99,,2013-02-05 22:22:00,
2013-02-05 17:32:00,25.0,16.0,29.92,East,84,2.0,-999.0,67,-99.99,,,-99.99,,2013-02-05 22:32:00,
2013-02-05 17:42:00,25.0,16.0,29.92,East,84,2.0,-999.0,67,-99.99,,,-99.99,,2013-02-05 22:42:00,
2013-02-05 17:52:00,24.0,14.0,29.91,ENE,68,5.0,-999.0,66,-99.99,,,-99.99,,2013-02-05 22:52:00,
2013-02-05 18:02:00,23.0,14.0,29.92,ESE,119,2.0,-999.0,68,-99.99,,,-99.99,,2013-02-05 23:02:00,
2013-02-05 18:11:00,23.0,14.0,29.92,ESE,119,2.0,-999.0,68,-99.99,,,-99.99,,2013-02-05 23:11:00,
2013-02-05 18:22:00,22.0,13.0,29.92,SE,128,3.0,-999.0,69,-99.99,,,-99.99,,2013-02-05 23:22:00,
2013-02-05 18:32:00,22.0,13.0,29.92,ENE,69,3.0,-999.0,69,-99.99,,,-99.99,,2013-02-05 23:32:00,
2013-02-05 18:42:00,22.0,13.0,29.92,ENE,69,3.0,-999.0,69,-99.99,,,-99.99,,2013-02-05 23:42:00,
2013-02-05 18:52:00,22.0,14.0,29.92,East,92,1.0,-999.0,70,-99.99,,,-99.99,,2013-02-05 23:52:00,
2013-02-05 19:02:00,22.0,14.0,29.93,ESE,119,1.0,-999.0,71,-99.99,,,-99.99,,2013-02-06 00:02:00,
2013-02-05 19:12:00,22.0,14.0,29.93,ESE,119,1.0,-999.0,71,-99.99,,,-99.99,,2013-02-06 00:12:00,
2013-02-05 19:22:00,22.0,14.0,29.94,East,93,0.0,-999.0,71,-99.99,,,-99.99,,2013-02-06 00:22:00,
2013-02-05 19:32:00,22.0,14.0,29.94,East,82,0.0,-999.0,72,-99.99,,,-99.99,,2013-02-06 00:32:00,
2013-02-05 19:42:00,22.0,14.0,29.94,East,82,0.0,-999.0,72,-99.99,,,-99.99,,2013-02-06 00:42:00,
2013-02-05 19:52:00,22.0,15.0,29.93,ESE,104,0.0,-999.0,73,-99.99,,,-99.99,,2013-02-06 00:52:00,
2013-02-05 20:02:00,22.0,15.0,29.93,ENE,71,1.0,-999.0,75,-99.99,,,-99.99,,2013-02-06 01:02:00,
2013-02-05 20:12:00,22.0,15.0,29.93,ENE,71,1.0,-999.0,75,-99.99,,,-99.99,,2013-02-06 01:12:00,
2013-02-05 20:22:00,21.0,15.0,29.93,NE,41,2.0,-999.0,76,-99.99,,,-99.99,,2013-02-06 01:22:00,
2013-02-05 20:32:00,21.0,15.0,29.93,NNE,22,1.0,-999.0,77,-99.99,,,-99.99,,2013-02-06 01:32:00,
2013-02-05 20:42:00,21.0,15.0,29.93,NNE,22,1.0,-999.0,77,-99.99,,,-99.99,,2013-02-06 01:42:00,
2013-02-05 20:52:00,21.0,15.0,29.93,East,86,2.0,-999.0,78,-99.99,,,-99.99,,2013-02-06 01:52:00,
2013-02-05 21:02:00,21.0,16.0,29.93,ENE,76,0.0,-999.0,79,-99.99,,,-99.99,,2013-02-06 02:02:00,
2013-02-05 21:12:00,21.0,16.0,29.93,ENE,76,0.0,-999.0,79,-99.99,,,-99.99,,2013-02-06 02:12:00,
2013-02-05 21:22:00,21.0,16.0,29.93,ESE,116,0.0,-999.0,80,-99.99,,,-99.99,,2013-02-06 02:22:00,
2013-02-05 21:32:00,21.0,16.0,29.93,ESE,116,0.0,-999.0,80,-99.99,,,-99.99,,2013-02-06 02:32:00,
2013-02-05 21:42:00,21.0,16.0,29.93,ESE,116,0.0,-999.0,80,-99.99,,,-99.99,,2013-02-06 02:42:00,
2013-02-05 21:52:00,21.0,16.0,29.93,ESE,116,0.0,-999.0,81,-99.99,,,-99.99,,2013-02-06 02:52:00,
2013-02-05 22:03:00,21.0,16.0,29.93,ESE,116,0.0,-999.0,81,-99.99,,,-99.99,,2013-02-06 03:03:00,
2013-02-05 22:12:00,21.0,16.0,29.93,ESE,116,0.0,-999.0,81,-99.99,,,-99.99,,2013-02-06 03:12:00,
2013-02-05 22:22:00,21.0,16.0,29.93,ESE,117,0.0,-999.0,82,-99.99,,,-99.99,,2013-02-06 03:22:00,
2013-02-05 22:32:00,22.0,18.0,29.93,SSW,212,2.0,-999.0,84,-99.99,,,-99.99,,2013-02-06 03:32:00,
2013-02-05 22:42:00,22.0,18.0,29.93,SSW,212,2.0,-999.0,84,-99.99,,,-99.99,,2013-02-06 03:42:00,
2013-02-05 22:53:00,22.0,18.0,29.94,SSW,209,3.0,-999.0,84,-99.99,,,-99.99,,2013-02-06 03:53:00,
2013-02-05 23:02:00,22.0,18.0,29.94,SSW,209,3.0,-999.0,84,-99.99,,,-99.99,,2013-02-06 04:02:00,
2013-02-05 23:11:00,22.0,18.0,29.94,SSW,209,3.0,-999.0,84,-99.99,,,-99.99,,2013-02-06 04:11:00,
2013-02-05 23:22:00,23.0,18.0,29.93,SSW,192,3.0,-999.0,82,-99.99,,,-99.99,,2013-02-06 04:22:00,
2013-02-05 23:32:00,23.0,18.0,29.93,SSW,192,3.0,-999.0,82,-99.99,,,-99.99,,2013-02-06 04:32:00,
2013-02-05 23:42:00,23.0,18.0,29.93,SSW,192,3.0,-999.0,82,-99.99,,,-99.99,,2013-02-06 04:42:00,
2013-02-05 23:52:00,23.0,19.0,29.93,SW,225,2.0,-999.0,83,-99.99,,,-99.99,,2013-02-06 04:52:00,